This demonstration page uses our WeatherBlox Daily Observations layout. Learn more.

Hourly Observations for September 22, 2015

Temp ( °F °C ) Dew Point ( °F °C ) Humidity (%) Winds ( mph kmh ) Pressure ( in mb ) Visibility ( mi km ) Precip ( " mm )
12:15 am 00:15 Clear 68 19.8 63 17 84 84 S 12 19 29.85 1011 10 16.0934 0 0
12:35 am 00:35 Clear 67 19.5 63 17 86 86 SSE 9 15 29.85 1011 10 16.0934 0 0
12:55 am 00:55 Clear 67 19.3 63 17 87 87 SSE 9 15 29.85 1011 10 16.0934 0 0
1:15 am 01:15 Clear 67 19.4 63 17.1 87 87 SSE 8 13 29.85 1011 10 16.0934 0 0
1:35 am 01:35 Clear 67 19.5 63 17.2 87 87 SSE 9 15 29.85 1011 10 16.0934 0 0
1:55 am 01:55 Clear 67 19.5 63 17.2 87 87 SSE 9 15 29.85 1011 10 16.0934 0 0
2:15 am 02:15 Clear 67 19.5 63 17.2 87 87 SSE 8 13 29.85 1011 10 16.0934 0 0
2:35 am 02:35 Clear 67 19.3 63 17.2 88 88 SSE 8 13 29.85 1011 10 16.0934 0 0
2:55 am 02:55 Clear 66 19 63 17.1 89 89 SSE 7 11 29.83 1010 10 16.0934 0 0
3:15 am 03:15 Clear 65 18.5 62 16.9 90 90 SSE 6 9 29.83 1010 10 16.0934 0 0
3:35 am 03:35 Clear 65 18.5 63 17 91 91 S 8 13 29.83 1010 10 16.0934 0 0
3:55 am 03:55 Clear 65 18.3 62 16.9 92 92 SSE 7 11 29.85 1011 10 16.0934 0 0
4:15 am 04:15 Clear 65 18.5 63 17 91 91 SSE 7 11 29.83 1010 10 16.0934 0 0
4:35 am 04:35 Clear 65 18.2 62 16.8 92 92 SSE 6 9 29.85 1011 10 16.0934 0 0
4:55 am 04:55 Clear 65 18.3 62 16.8 91 91 S 5 7 29.85 1011 10 16.0934 0 0
5:15 am 05:15 Clear 64 17.7 61 16.3 92 92 Calm 29.88 1012 7 11.26538 0 0
5:35 am 05:35 Clear 64 17.6 62 16.5 93 93 Calm 29.88 1012 10 16.0934 0 0
5:55 am 05:55 Clear with Mist and Fog 60 15.4 58 14.3 93 93 Calm 29.91 1013 5 8.0467 0 0
6:15 am 06:15 Clear with Mist and Fog 59 15 57 14.1 94 94 Calm 29.91 1013 4 6.43736 0 0
6:35 am 06:35 Clear with Mist and Fog 59 15.1 58 14.3 95 95 Calm 29.91 1013 4 6.43736 0 0
6:55 am 06:55 Clear with Mist and Fog 58 14.2 56 13.3 94 94 Calm 29.94 1014 4 6.43736 0 0
7:15 am 07:15 Mostly Cloudy with Mist and Fog 58 14.5 57 13.8 96 96 NNE 6 9 29.94 1014 1.25 2.011675 0 0
7:35 am 07:35 Mostly Cloudy with Mist and Fog 58 14.6 57 13.9 96 96 ENE 5 7 29.94 1014 1.75 2.816345 0 0
7:55 am 07:55 Mostly Cloudy with Mist and Fog 58 14.7 57 14.1 96 96 NE 3 6 29.94 1014 1.75 2.816345 0 0
8:15 am 08:15 Cloudy with Fog 59 15.1 58 14.5 96 96 NE 8 13 29.97 1015 0.25 0.402335 0 0
8:35 am 08:35 Cloudy with Light Drizzle 60 15.5 59 14.8 96 96 ENE 7 11 29.94 1014 5 8.0467 0 0
8:55 am 08:55 Cloudy with Fog 61 16.2 60 15.6 96 96 ENE 6 9 29.94 1014 0.25 0.402335 0 0
9:15 am 09:15 Cloudy with Fog 63 17.1 62 16.4 96 96 ENE 5 7 29.94 1014 0.25 0.402335 0 0
9:35 am 09:35 Cloudy with Mist and Fog 64 17.6 63 17 96 96 ESE 6 9 29.94 1014 1.25 2.011675 0 0
9:55 am 09:55 Partly Cloudy 66 18.9 65 18.3 96 96 ESE 8 13 29.94 1014 7 11.26538 0 0
10:15 am 10:15 Sunny 70 21.3 65 18.1 82 82 SE 7 11 29.91 1013 10 16.0934 0 0
10:35 am 10:35 Sunny 73 22.8 63 17.1 70 70 S 10 17 29.91 1013 10 16.0934 0 0
10:55 am 10:55 Sunny 74 23.6 62 16.9 66 66 S 6 9 29.88 1012 10 16.0934 0 0
11:15 am 11:15 Sunny 76 24.4 62 16.7 62 62 S 9 15 29.88 1012 10 16.0934 0 0
11:35 am 11:35 Sunny 78 25.7 62 16.4 57 57 S 6 9 29.88 1012 10 16.0934 0 0
11:55 am 11:55 Sunny 79 26.3 61 16.1 54 54 SSE 8 13 29.88 1012 10 16.0934 0 0
12:15 pm 12:15 Sunny 80 26.8 61 16.1 52 52 S 9 15 29.85 1011 10 16.0934 0 0
12:35 pm 12:35 Sunny 82 27.5 61 16 50 50 SSE 7 11 29.85 1011 10 16.0934 0 0
12:55 pm 12:55 Sunny 84 28.7 60 15.8 46 46 SSE 8 13 29.85 1011 10 16.0934 0 0
1:15 pm 13:15 Sunny 85 29.5 60 15.4 42 42 S 7 11 29.85 1011 10 16.0934 0 0
1:35 pm 13:35 Sunny 87 30.4 60 15.4 40 40 S 9 15 29.85 1011 10 16.0934 0 0
1:55 pm 13:55 Sunny 87 30.6 60 15.3 39 39 S 8 13 29.83 1010 10 16.0934 0 0
2:15 pm 14:15 Sunny 87 30.6 60 15.4 40 40 SSE 7 11 29.8 1009 10 16.0934 0 0
2:35 pm 14:35 Sunny 88 31.2 60 15.3 38 38 S 13 20 29.8 1009 10 16.0934 0 0
2:55 pm 14:55 Sunny 89 31.7 58 14.6 35 35 SE 10 17 29.8 1009 10 16.0934 0 0
3:15 pm 15:15 Sunny 90 32.4 58 14.5 34 34 S 13 20 29.8 1009 10 16.0934 0 0
3:35 pm 15:35 Sunny 91 32.6 58 14.3 33 33 SSE 13 20 29.8 1009 10 16.0934 0 0
3:55 pm 15:55 Sunny 90 32.3 58 14.3 34 34 S 14 22 29.8 1009 10 16.0934 0 0
4:15 pm 16:15 Sunny 90 32.1 58 14.6 35 35 SSE 10 17 29.8 1009 10 16.0934 0 0
4:35 pm 16:35 Sunny 90 32 58 14.6 35 35 SSE 14 22 29.8 1009 10 16.0934 0 0
4:55 pm 16:55 Sunny 88 31.2 60 15.3 38 38 SE 14 22 29.8 1009 10 16.0934 0 0
5:15 pm 17:15 Sunny 90 32 59 15.2 36 36 SE 15 24 29.8 1009 10 16.0934 0 0
5:35 pm 17:35 Sunny 88 31 59 15 38 38 SE 13 20 29.8 1009 10 16.0934 0 0
5:55 pm 17:55 Sunny 87 30.7 60 15.5 40 40 ESE 13 20 29.8 1009 10 16.0934 0 0
6:15 pm 18:15 Partly Cloudy 85 29.4 60 15.8 44 44 SSE 8 13 29.83 1010 10 16.0934 0 0
6:35 pm 18:35 Sunny 84 28.7 49 9.4 30 30 SW 7 11 29.83 1010 10 16.0934 0 0
6:55 pm 18:55 Partly Cloudy 82 27.8 50 10.2 33 33 SSW 8 13 29.83 1010 10 16.0934 0 0
7:15 pm 19:15 Mostly Cloudy with Nearby Thunderstorms 82 28 50 10.1 33 33 S 20 31 29.85 1011 10 16.0934 0 0
7:35 pm 19:35 Cloudy 79 25.9 56 13.4 46 46 SE 7 11 29.85 1011 10 16.0934 0 0
7:55 pm 19:55 Cloudy with Light Rain 73 22.8 59 15 62 62 Calm 29.91 1013 10 16.0934 0 0
8:15 pm 20:15 Cloudy 74 23.4 59 14.9 59 59 Calm 29.91 1013 10 16.0934 0 0
8:35 pm 20:35 Partly Cloudy 76 24.7 57 13.8 51 51 WSW 9 15 29.91 1013 10 16.0934 0 0
8:55 pm 20:55 Clear 77 24.9 56 13.1 48 48 W 7 11 29.91 1013 10 16.0934 0 0
9:15 pm 21:15 Clear 75 24.1 55 12.8 49 49 W 7 11 29.94 1014 10 16.0934 0 0
9:35 pm 21:35 Clear 73 22.8 56 13.1 54 54 WNW 5 7 29.97 1015 10 16.0934 0 0
9:55 pm 21:55 Clear 71 21.6 56 13.5 60 60 W 5 7 29.97 1015 10 16.0934 0 0
10:15 pm 22:15 Clear 70 21.1 56 13.3 61 61 W 5 7 29.97 1015 10 16.0934 0 0
10:35 pm 22:35 Clear 70 20.9 55 12.5 59 59 Calm 29.97 1015 10 16.0934 0 0
10:55 pm 22:55 Clear 68 20.1 55 12.5 62 62 Calm 30 1016 10 16.0934 0 0
11:15 pm 23:15 Clear 67 19.2 55 12.7 66 66 Calm 30 1016 10 16.0934 0 0
11:35 pm 23:35 Clear 64 17.9 56 13.1 74 74 Calm 30 1016 10 16.0934 0 0
11:55 pm 23:55 Clear 64 17.5 55 13 75 75 Calm 29.97 1015 10 16.0934 0 0

Powered by AerisWeather